This is the latest recevied weather packets stored in our database for station/object VO2AGO. If no packets are shown the sender has not sent any weather packets the latest 10 day(s).
| Time | Temp. | Humidity | Pressure | Rain* | Wind** | Luminosity | Snow |
|---|---|---|---|---|---|---|---|
| 1777928750 | 3.89° C | - | - | - | 0 m/s | 302 W/m² | - |
| 1777928300 | 3.89° C | - | - | - | 0 m/s | 362 W/m² | - |
| 1777927849 | 4.44° C | - | - | - | 0 m/s | 515 W/m² | - |
| 1777927400 | 4.44° C | - | - | - | 0 m/s | 532 W/m² | - |
| 1777926950 | 4.44° C | - | - | - | 0 m/s | 801 W/m² | - |
| 1777926500 | 5° C | - | - | - | 0 m/s | 917 W/m² | - |
| 1777926050 | 5° C | - | - | - | 0 m/s | 1032 W/m² | - |
| 1777925600 | 5° C | - | - | - | 0 m/s | 1488 W/m² | - |
| 1777925149 | 5.56° C | - | - | - | 0 m/s | 910 W/m² | - |
| 1777924700 | 6.67° C | - | - | - | 0 m/s | 1254 W/m² | - |
| 1777924250 | 5° C | - | - | - | 0 m/s | 1289 W/m² | - |
| 1777923819 | 3.89° C | - | - | - | 0 m/s | 806 W/m² | - |
| 1777923350 | 4.44° C | - | - | - | 0 m/s | 620 W/m² | - |
| 1777922900 | 4.44° C | - | - | - | 0 m/s | 555 W/m² | - |
| 1777922450 | 4.44° C | - | - | - | 0 m/s | 667 W/m² | - |
| 1777922000 | 4.44° C | - | - | - | 0 m/s | 894 W/m² | - |
| 1777921550 | 5° C | - | - | - | 0 m/s | 877 W/m² | - |
| 1777921100 | 5° C | - | - | - | 0 m/s | 1002 W/m² | - |
| 1777920650 | 5.56° C | - | - | - | 0 m/s | 1187 W/m² | - |
| 1777920200 | 5.56° C | - | - | - | 0 m/s | 1070 W/m² | - |
| 1777919750 | 5.56° C | - | - | - | 0 m/s | 865 W/m² | - |
| 1777919300 | 5.56° C | - | - | - | 0 m/s | 867 W/m² | - |
| 1777918849 | 5.56° C | - | - | - | 0 m/s | 1142 W/m² | - |
| 1777918400 | 5.56° C | - | - | - | 0 m/s | 1061 W/m² | - |
| 1777917500 | 5° C | - | - | - | 0 m/s | 906 W/m² | - |
* Rain since midnight (hover to see other rain measurements)
** Current wind speed in m/s (hover to see current wind gust speed)